Regional Weather Roundup
Issued by NWS Wakefield, VA

Home | Current Version | Previous Version | Graphics & Text | Print | Product List | Glossary On
Versions: 1 2 3 4 5 6 7 8 9 10 11 12 13 14 15 16 17 18 19 20 21 22 23 24 25 26 27 28 29 30 31 32 33 34 35 36 37 38 39 40 41 42 43 44 45 46 47 48 49 50
000
ASUS41 KAKQ 242110
RWRAKQ

REGIONAL WEATHER ROUNDUP
NATIONAL WEATHER SERVICE WAKEFIELD VA
500 PM EDT THU JUL 24 2014

Note: "fair" indicates few or no clouds below 12,000 feet with no
significant weather and/or obstructions to visibility. * = Denotes
station may not report precipitation (e.g., rain,snow,etc.),
thunder or fog.

VAZ042-051-052>054-056-242200-
NORTHERN VIRGINIA

CITY           SKY/WX    TMP DP  RH WIND       PRES   REMARKS
WASH NATIONAL  CLOUDY    79  60  52 N7        29.89F
DULLES         CLOUDY    76  59  55 N8        29.90F
FORT BELVOIR   PTSUNNY   77  63  61 NW9       29.90S
QUANTICO       LGT RAIN  72  67  84 W9        29.91F
FREDERICKSBRG* RAIN      71  69  96 NW3       29.91R
STAFFORD*      LGT RAIN  69  69 100 CALM      29.95S
WARRENTON      CLOUDY    72  72 100 CALM      29.90F
CULPEPER*      LGT RAIN N/A N/A N/A SW3       29.93S
MANASSAS*      SUNNY     75  64  69 N5        29.91F
LEESBURG*      CLOUDY    77  64  65 N5        29.92F
WINCHESTER     CLOUDY    77  61  57 NW3       29.93S
$$

VAZ048-049-060>072-079>083-242200-
CENTRAL AND SOUTH CENTRAL VIRGINIA...AND NORTH CENTRAL NORTH CAROLINA

CITY           SKY/WX    TMP DP  RH WIND       PRES   REMARKS
RICHMOND       TSTM      73  72  94 N12       29.86S VSB 1
CHESTERFIELD*  CLOUDY    72  63  73 NE8G20    29.90R THUNDER
HANOVER        LGT RAIN  71  68  90 N6        29.91R FOG
TAPPAHANNOCK*  PTSUNNY   76  65  68 N5        29.89S
CHARLOTTSVILLE LGT RAIN  68  66  93 NE5       29.92R FOG
ORANGE*        RAIN      66  63  88 CALM      29.94F
LOUISA*        LGT RAIN  68  66  94 N10       29.90F
FARMVILLE*     TSTM      70  70 100 NW3G16    29.91R
SOUTH HILL*    MOSUNNY   84  73  70 CALM      29.91S
ROANOKE RAPIDS MOCLDY    88  70  55 CALM      29.85S
RALEIGH        PTSUNNY   84  73  69 CALM      29.85F
$$

VAZ088>098-242200-
SOUTHEAST VIRGINIA

CITY           SKY/WX    TMP DP  RH WIND       PRES   REMARKS
NORFOLK        MOSUNNY   81  71  71 NE8       29.85F
VIRGINIA BEACH PTSUNNY   79  72  79 E9        29.85F
NORFOLK NAVAL  MOSUNNY   81  72  74 E8        29.87S
WEST POINT*    PTSUNNY   82  69  66 E8        29.87F
NEWPORT NEWS   CLOUDY    78  73  84 E7        29.86F
LANGLEY AFB    LGT RAIN  79  73  83 NE10      29.85F
FORT EUSTIS    CLOUDY    80  72  75 NE10      29.84F
WILLIAMSBURG*  MOSUNNY   81  75  83 CALM      29.86F
FRANKLIN*      SUNNY     82  70  65 CALM      29.84F
WAKEFIELD      MOSUNNY   84  71  65 CALM      29.84F
$$

VAZ020-022-025-037-045-242200-
WESTERN AND SOUTHWEST VIRGINIA

CITY           SKY/WX    TMP DP  RH WIND       PRES   REMARKS
STAUNTON*      CLOUDY    69  65  88 NE5       29.97S
HOT SPRINGS VA FOG       63  61  94 NE5       30.05S VSB 1/2
LYNCHBURG      RAIN      68  67  96 NE9       29.92F FOG
DANVILLE       MOSUNNY   87  71  58 MISG      29.85S
MARTINSVILLE   MOSUNNY   85  66  52 NW14G21   29.89F
ROANOKE        LGT RAIN  73  68  83 N6        29.95S
BLACKSBURG     CLOUDY    72  70  94 NE3         N/A
DUBLIN*        CLOUDY    74  68  82 N3        29.98S
MARION*        LGT RAIN  68  67  96 W12G18    30.03S
HILLSVILLE*    CLOUDY    72  65  78 NW15G22   29.99R
RICHLANDS*     RAIN      69  66  90 CALM      30.03S
WISE*          FOG       64  64 100 N13       30.06R VSB 1/4
ABINGDON*      CLOUDY    72  68  89 SE5       30.00R
$$

MDZ021>025-VAZ099-100-242200-
SOUTHERN MARYLAND AND THE DELMARVA PENINSULA

CITY           SKY/WX    TMP DP  RH WIND       PRES   REMARKS
PATUXENT RIVER LGT RAIN  73  65  75 N10       29.88F
BAY BRIDGE APT   N/A     79  61  53 N6        29.88F
LEONARDTOWN    CLOUDY    70  64  83 CALM      29.90F
DOVER          MOSUNNY   80  64  57 N10       29.85F
GEORGETOWN     PTSUNNY   79  64  60 VRB6      29.88S
EASTON         MOSUNNY   81  66  61 CALM      29.91F
CAMBRIDGE      PTSUNNY   77  63  61 N3        29.88S
SALISBURY      NOT AVBL
OCEAN CITY     CLOUDY    78  67  68 N6        29.87S
WALLOPS ISLAND CLOUDY    78  70  76 CALM      29.87F
ACCOMACK*        N/A     77  68  73 N7        29.86F
$$

NCZ012>017-030>032-242200-
EASTERN NORTH CAROLINA

CITY           SKY/WX    TMP DP  RH WIND       PRES   REMARKS
ELIZABETH CITY PTSUNNY   80  70  71 CALM      29.86F
AHOSKIE*       SUNNY     83  69  63 E3        29.86S
EDENTON*       PTSUNNY   77  71  82 E3        29.87F
CURRITUCK*     PTSUNNY   82  71  67 SE3       29.87F
KILL DEVIL HLS PTSUNNY   77  71  79 CALM      29.85F
MANTEO         NOT AVBL
CAPE HATTERAS  LGT RAIN  76  74  93 SW12      29.89R
GOLDSBORO      MOSUNNY   75  75  99 E3        29.84F
WASHINGTON     CLOUDY    76  73  91 SE3       29.87F
GREENVILLE     MOSUNNY   77  73  88 CALM      29.89F
NEW BERN       CLOUDY    77  73  88 CALM      29.88R
WILMINGTON     SUNNY     91  75  59 SW15G25   29.83F HX 101
$$

VAZ048-242200-
ELSEWHERE

CITY           SKY/WX    TMP DP  RH WIND       PRES   REMARKS
HARRISBURG PA  PTSUNNY   79  52  38 N14       29.90F
BALTIMORE      PTSUNNY   80  58  46 N5        29.88F
ANNAPOLIS      CLOUDY    78  63  59 CALM      29.88F
ANDREWS AFB    PTSUNNY   77  63  61 N10       29.89F
WILMINGTON DE  SUNNY     81  57  43 NW12      29.87F
PHILADELPHIA   MOSUNNY   83  56  39 N14G20    29.86S
WILDWOOD NJ*   MOSUNNY   79  63  57 W10       29.87S
ATLANTIC CITY  MOSUNNY   79  60  52 NW7       29.84F
HENDERSON NC   MOSUNNY   83  68  59 CALM      29.86S
GREENSBORO     PTSUNNY   88  67  49 SW13      29.86S
ROCKY MOUNT    MOSUNNY   83  73  72 VRB5      29.85F
FAYETTEVILLE   CLOUDY    89  74  60 S14       29.83F HX  98
CHARLOTTE      PTSUNNY   82  69  64 SW9       29.88F
$$

VAZ100-242200-
MARINE

STATION/POSITION TIME  TEMP    WIND        PRES    WAVE   SWELL
                       AIR SEA DIR/SP/G            HT/PER HT/PER
                 (UTC) (F)     (DEG/KT/KT) (MB)    (FT/S) (FT/S)
44066 TX TWR #4  2100   72 74  350/ 10/ 14 1009.5F   3/ 8   2/ 8
CAPE MAY NJ      2100   77 78  300/ 10/ 12 1010.7F
LEWES DE         2100   75 73  340/  8/  9 1011.1S
15NM E FENWICK I 2100   74 76              1011.2F   2/ 6
OCEAN-CITY-INLET 2100   76 70   10/  6/  7 1011.0F
WACHAPREAGUE VA  2100   75 82   80/  8/  9 1011.4S
THOMAS POINT MD  2100   76 80   40/  5/  6 1012.4F
GOOSES REEF MD   2100   76      40/  8/ 10 1012.5F
COVE POINT MD    2100   74      20/ 10/ 13 1011.8F
SOLOMONS ISLAND  2100      82                N/A
BISHOPS HEAD MD  2100   76 80   10/  6/ 11 1011.4S
PINEY POINT MD   2100           10/  9/ 10   N/A
POTOMAC MD       2100   76      10/ 12/ 16 1011.0S
CAMBRIDGE MD     2100   76 80  330/  6/  9 1011.4F
LEWISETTA VA     2100   76 81   20/  6/  9 1011.6S
RAPPAHANNOCK LGT 2100           10/  8/ 10 1011.8F
STINGRAY PT      2100   77      30/ 10/ 12 1012.2F
YORK RVR RNG VA  2100   77      50/  8/ 10 1010.8R
YORKTOWN VA      2100   77 81   50/  9/ 10 1011.0S
JAMESTOWN VA     2100   77      80/  4/ 10   N/A
DOMINION TERM VA 2100   78     100/  7/ 11 1011.0F
KIPTOPEKE VA     2100      81  130/  8/ 10   N/A
CHES BAY BRIDGE  2100   77 79   80/  7/  9 1010.5S
CAPE HENRY VA    2100   77      90/  7/  8 1009.9F
WILLOUBY STN VA  2100           90/  9/ 11 1010.3F
S CRANEY ISL VA  2100           20/  8/  9 1010.8F
CAPE HENRY BUOY  2100      78                N/A     2/ 6
1ST LANDING BUOY 2100   77     110/  8/ 10 1010.7F
CAPE CHARLES BUO 2100      76                N/A     2/ 8
OFFSHORE WE BUOY 2100      79                N/A     2/ 6
64NM E OF VA BCH 2100   77 78  360/  2/  2 1010.6F   3/ 7   3/ 7
DUCK PIER NC     2100   79 72  110/  2/  3 1010.7F
44056 DUCK FRF   2100                        N/A     2/10
OREGON INLET NC  2100   76 82  350/  3/  4 1011.6F
HATTERAS NC      2100   76 82  220/  7/ 10 1012.0S
DIAMOND SHLS NC  2100          VRB 19/ 23  1011.3F   4/ 7   2/ 7
CAPE LOOKOUT NC  2000   76      50/  7/  9 1012.0F
$$


USA.gov is the U.S. government's official web portal to all federal, state and local government web resources and services.